Location: Berg
(48.4333°N, 13.9167°E)
Time: 15:13:20
(UTC+00:00)

IGS 5A - Pass Details

Date: 18 September 2020
Orbit: 583 x 588 km, 97.6° (Epoch: 09 October)

Event Time Altitude Azimuth Distance (km) Brightness Sun altitude
Exits shadow 19:37:08 38° 30° (NNE) 907 4.4 -23.9°
Drops below altitude 10° 19:40:05 10° 358° (N) 1,918 6.5 -24.3°
Sets 19:42:18 0° 352° (N) 2,823 7.5 -24.6°
